AWQ113 WIII-WARR

Flight info

Callsign AWQ113
Flight time 1h 2m
Altitude 29000
Route CA T3 BA
Aircraft A320/M-SDE3FGHIRWY/LB1

Departure

Time 2026-05-04 14:30
Airport Soekarno-Hatta International Airport (WIII)

Arrival

Time 2026-05-04 15:32
Airport Juanda International Airport (WARR)
Time Latitude Longitude Altitude Speed Heading
2026-05-04 14:02 -6.12171 106.65659 47 ft 0 kts 286°
2026-05-04 14:18 -6.12171 106.65660 48 ft 1 kts 286°
2026-05-04 14:18 -6.12179 106.65689 48 ft 2 kts 286°
2026-05-04 14:19 -6.12188 106.65717 48 ft 2 kts 286°
2026-05-04 14:19 -6.12192 106.65733 48 ft 2 kts 287°
2026-05-04 14:19 -6.12200 106.65745 48 ft 2 kts 316°
2026-05-04 14:19 -6.12212 106.65754 48 ft 2 kts 338°
2026-05-04 14:20 -6.12226 106.65757 48 ft 1 kts 359°
2026-05-04 14:20 -6.12232 106.65757 48 ft 1 kts
2026-05-04 14:20 -6.12234 106.65757 48 ft 0 kts
2026-05-04 14:22 -6.12223 106.65757 48 ft 3 kts
2026-05-04 14:23 -6.12131 106.65760 48 ft 9 kts 352°
2026-05-04 14:23 -6.12095 106.65744 48 ft 6 kts 338°
2026-05-04 14:23 -6.12043 106.65723 48 ft 9 kts 339°
2026-05-04 14:24 -6.11971 106.65695 48 ft 11 kts 338°
2026-05-04 14:24 -6.11888 106.65662 48 ft 14 kts 338°
2026-05-04 14:24 -6.11787 106.65622 48 ft 17 kts 338°
2026-05-04 14:24 -6.11696 106.65586 48 ft 9 kts 338°
2026-05-04 14:25 -6.11651 106.65569 48 ft 8 kts 345°
2026-05-04 14:25 -6.11566 106.65711 48 ft 18 kts 71°
2026-05-04 14:25 -6.11513 106.65855 48 ft 25 kts 68°
2026-05-04 14:26 -6.11440 106.66037 48 ft 28 kts 68°
2026-05-04 14:26 -6.11369 106.66213 48 ft 26 kts 68°
2026-05-04 14:26 -6.11301 106.66381 48 ft 25 kts 68°
2026-05-04 14:26 -6.11239 106.66539 48 ft 24 kts 69°
2026-05-04 14:27 -6.11178 106.66691 48 ft 22 kts 69°
2026-05-04 14:27 -6.11128 106.66811 48 ft 15 kts 70°
2026-05-04 14:27 -6.11094 106.66901 48 ft 12 kts 67°
2026-05-04 14:27 -6.11064 106.66952 48 ft 8 kts 46°
2026-05-04 14:28 -6.11006 106.66975 48 ft 9 kts 354°
2026-05-04 14:28 -6.10952 106.66935 48 ft 10 kts 297°
2026-05-04 14:28 -6.10919 106.66882 48 ft 3 kts 306°
2026-05-04 14:28 -6.10915 106.66856 48 ft 4 kts 258°
2026-05-04 14:29 -6.11192 106.66166 48 ft 122 kts 248°
2026-05-04 14:29 -6.12028 106.64021 618 ft 183 kts 248°
2026-05-04 14:30 -6.12468 106.62782 1269 ft 193 kts 256°
2026-05-04 14:30 -6.12427 106.61407 1858 ft 208 kts 284°
2026-05-04 14:30 -6.11433 106.58532 3180 ft 231 kts 290°
2026-05-04 14:31 -6.10855 106.57021 4127 ft 231 kts 297°
2026-05-04 14:31 -6.08256 106.55648 5808 ft 232 kts 12°
2026-05-04 14:32 -6.05916 106.57461 7403 ft 234 kts 67°
2026-05-04 14:32 -6.05357 106.58993 8209 ft 238 kts 72°
2026-05-04 14:32 -6.04820 106.60613 8737 ft 255 kts 72°
2026-05-04 14:32 -6.04226 106.62350 9237 ft 273 kts 71°
2026-05-04 14:33 -6.03563 106.64223 9728 ft 291 kts 70°
2026-05-04 14:33 -6.02856 106.66179 10365 ft 303 kts 70°
2026-05-04 14:33 -6.02136 106.68147 11187 ft 307 kts 70°
2026-05-04 14:33 -6.01394 106.70156 12006 ft 310 kts 70°
2026-05-04 14:34 -6.00634 106.72212 12817 ft 314 kts 70°
2026-05-04 14:34 -6.00084 106.74322 13583 ft 318 kts 86°
2026-05-04 14:34 -6.00360 106.76512 14344 ft 321 kts 108°
2026-05-04 14:34 -6.01140 106.78620 15163 ft 323 kts 111°
2026-05-04 14:35 -6.01971 106.80711 15891 ft 327 kts 111°
2026-05-04 14:35 -6.02834 106.82879 16298 ft 341 kts 111°
2026-05-04 14:35 -6.03721 106.85125 16663 ft 355 kts 111°
2026-05-04 14:35 -6.04631 106.87444 17318 ft 359 kts 111°
2026-05-04 14:36 -6.05560 106.89817 17840 ft 368 kts 111°
2026-05-04 14:36 -6.06504 106.92234 18329 ft 376 kts 110°
2026-05-04 14:36 -6.07460 106.94688 18960 ft 379 kts 110°
2026-05-04 14:36 -6.08413 106.97136 19583 ft 382 kts 111°
2026-05-04 14:37 -6.09393 106.99657 20192 ft 386 kts 111°
2026-05-04 14:37 -6.10373 107.02179 20781 ft 389 kts 111°
2026-05-04 14:37 -6.11343 107.04675 21347 ft 393 kts 111°
2026-05-04 14:37 -6.12361 107.07297 21923 ft 396 kts 111°
2026-05-04 14:38 -6.13358 107.09864 22467 ft 399 kts 111°
2026-05-04 14:38 -6.14366 107.12460 23002 ft 402 kts 111°
2026-05-04 14:38 -6.15386 107.15089 23523 ft 405 kts 111°
2026-05-04 14:38 -6.16407 107.17718 24143 ft 405 kts 111°
2026-05-04 14:39 -6.17432 107.20359 24832 ft 403 kts 111°
2026-05-04 14:39 -6.18448 107.22974 25324 ft 405 kts 111°
2026-05-04 14:39 -6.19490 107.25665 25479 ft 416 kts 111°
2026-05-04 14:40 -6.21628 107.31177 25825 ft 435 kts 111°
2026-05-04 14:40 -6.22747 107.34060 25987 ft 443 kts 111°
2026-05-04 14:40 -6.23866 107.36945 26138 ft 451 kts 111°
2026-05-04 14:40 -6.25016 107.39908 26280 ft 458 kts 111°
2026-05-04 14:41 -6.26192 107.42941 26409 ft 465 kts 111°
2026-05-04 14:41 -6.27365 107.45964 26528 ft 471 kts 111°
2026-05-04 14:41 -6.29775 107.52182 26732 ft 480 kts 111°
2026-05-04 14:42 -6.32211 107.58469 26962 ft 486 kts 111°
2026-05-04 14:42 -6.33434 107.61633 27148 ft 487 kts 111°
2026-05-04 14:42 -6.34662 107.64811 27365 ft 487 kts 111°
2026-05-04 14:43 -6.35885 107.67985 27597 ft 486 kts 110°
2026-05-04 14:43 -6.37099 107.71143 27831 ft 486 kts 110°
2026-05-04 14:43 -6.38320 107.74318 28068 ft 486 kts 110°
2026-05-04 14:43 -6.39533 107.77466 28302 ft 485 kts 110°
2026-05-04 14:44 -6.40757 107.80640 28534 ft 485 kts 110°
2026-05-04 14:44 -6.41972 107.83790 28750 ft 485 kts 110°
2026-05-04 14:44 -6.43200 107.86972 28883 ft 485 kts 110°
2026-05-04 14:44 -6.44421 107.90138 28892 ft 484 kts 110°
2026-05-04 14:45 -6.46848 107.96429 28909 ft 484 kts 110°
2026-05-04 14:45 -6.49284 108.02749 28923 ft 485 kts 110°
2026-05-04 14:46 -6.51716 108.09060 28933 ft 484 kts 110°
2026-05-04 14:46 -6.54150 108.15380 28938 ft 484 kts 110°
2026-05-04 14:47 -6.56584 108.21699 28939 ft 484 kts 110°
2026-05-04 14:47 -6.59004 108.27985 28940 ft 484 kts 110°
2026-05-04 14:48 -6.61446 108.34329 28940 ft 484 kts 110°
2026-05-04 14:48 -6.63874 108.40642 28940 ft 484 kts 110°
2026-05-04 14:49 -6.66285 108.46912 28955 ft 476 kts 110°
2026-05-04 14:49 -6.68583 108.53150 28978 ft 475 kts 107°
2026-05-04 14:50 -6.70267 108.59527 28991 ft 473 kts 101°
2026-05-04 14:50 -6.71353 108.66061 28998 ft 473 kts 98°
2026-05-04 14:51 -6.72337 108.72588 29000 ft 473 kts 98°
2026-05-04 14:51 -6.73328 108.79115 29001 ft 473 kts 98°
2026-05-04 14:52 -6.74326 108.85644 29001 ft 473 kts 98°
2026-05-04 14:52 -6.75327 108.92185 29002 ft 472 kts 98°
2026-05-04 14:53 -6.76331 108.98740 29001 ft 472 kts 98°
2026-05-04 14:53 -6.77329 109.05268 29001 ft 472 kts 98°
2026-05-04 14:54 -6.78323 109.11762 29002 ft 471 kts 98°
2026-05-04 14:54 -6.79315 109.18266 29001 ft 471 kts 98°
2026-05-04 14:55 -6.80310 109.24783 29001 ft 471 kts 98°
2026-05-04 14:55 -6.81303 109.31303 29001 ft 471 kts 98°
2026-05-04 14:56 -6.82277 109.37700 29001 ft 471 kts 98°
2026-05-04 14:56 -6.83138 109.43371 29001 ft 471 kts 98°
2026-05-04 14:57 -6.84100 109.49702 29001 ft 471 kts 98°
2026-05-04 14:57 -6.85080 109.56158 28993 ft 473 kts 98°
2026-05-04 14:58 -6.86080 109.62747 28969 ft 474 kts 98°
2026-05-04 14:58 -6.87074 109.69303 28954 ft 475 kts 98°
2026-05-04 14:59 -6.88070 109.75894 28946 ft 475 kts 98°
2026-05-04 15:00 -6.89559 109.85740 28942 ft 474 kts 98°
2026-05-04 15:00 -6.90548 109.92285 28941 ft 475 kts 98°
2026-05-04 15:01 -6.92035 110.02129 28942 ft 474 kts 98°
2026-05-04 15:01 -6.93021 110.08667 28942 ft 474 kts 98°
2026-05-04 15:02 -6.94015 110.15247 28942 ft 474 kts 98°
2026-05-04 15:02 -6.95004 110.21802 28941 ft 473 kts 98°
2026-05-04 15:03 -6.95989 110.28336 28941 ft 473 kts 98°
2026-05-04 15:03 -6.96963 110.34902 28940 ft 473 kts 97°
2026-05-04 15:04 -6.97494 110.41338 28940 ft 474 kts 91°
2026-05-04 15:04 -6.97628 110.48016 28941 ft 474 kts 91°
2026-05-04 15:05 -6.97736 110.54688 28941 ft 474 kts 91°
2026-05-04 15:05 -6.97851 110.61365 28941 ft 474 kts 91°
2026-05-04 15:06 -6.97968 110.68024 28942 ft 474 kts 91°
2026-05-04 15:07 -6.98142 110.77890 28933 ft 456 kts 91°
2026-05-04 15:07 -6.98198 110.81054 28629 ft 445 kts 91°
2026-05-04 15:07 -6.98253 110.84126 28237 ft 436 kts 91°
2026-05-04 15:07 -6.98306 110.87149 27852 ft 428 kts 91°
2026-05-04 15:08 -6.98359 110.90138 27471 ft 420 kts 91°
2026-05-04 15:08 -6.98410 110.93005 27219 ft 409 kts 91°
2026-05-04 15:08 -6.98460 110.95863 26963 ft 399 kts 91°
2026-05-04 15:08 -6.98509 110.98624 26713 ft 393 kts 91°
2026-05-04 15:09 -6.98557 111.01354 26465 ft 394 kts 91°
2026-05-04 15:09 -6.98604 111.04126 26214 ft 395 kts 91°
2026-05-04 15:09 -6.98652 111.06902 25963 ft 395 kts 91°
2026-05-04 15:10 -6.98746 111.12422 25465 ft 396 kts 91°
2026-05-04 15:10 -6.98793 111.15179 25216 ft 397 kts 91°
2026-05-04 15:10 -6.98887 111.20734 24706 ft 398 kts 91°
2026-05-04 15:11 -6.98934 111.23524 24365 ft 398 kts 91°
2026-05-04 15:11 -6.98981 111.26341 23915 ft 399 kts 91°
2026-05-04 15:11 -6.99029 111.29125 23366 ft 400 kts 91°
2026-05-04 15:11 -6.99076 111.31905 22760 ft 400 kts 91°
2026-05-04 15:12 -6.99122 111.34725 22200 ft 399 kts 91°
2026-05-04 15:12 -6.99167 111.37478 21756 ft 395 kts 91°
2026-05-04 15:12 -6.99287 111.40221 21295 ft 391 kts 95°
2026-05-04 15:12 -6.99645 111.42921 20831 ft 388 kts 100°
2026-05-04 15:13 -7.00258 111.45587 20341 ft 386 kts 105°
2026-05-04 15:13 -7.00973 111.48154 19866 ft 383 kts 106°
2026-05-04 15:13 -7.01713 111.50736 19393 ft 380 kts 106°
2026-05-04 15:13 -7.02442 111.53280 18926 ft 378 kts 106°
2026-05-04 15:14 -7.03163 111.55801 18464 ft 375 kts 106°
2026-05-04 15:14 -7.03875 111.58305 18004 ft 372 kts 106°
2026-05-04 15:14 -7.04590 111.60822 17543 ft 369 kts 106°
2026-05-04 15:14 -7.05287 111.63281 17091 ft 367 kts 106°
2026-05-04 15:15 -7.05981 111.65728 16630 ft 364 kts 105°
2026-05-04 15:15 -7.06672 111.68179 16155 ft 363 kts 105°
2026-05-04 15:15 -7.07358 111.70611 15683 ft 361 kts 105°
2026-05-04 15:16 -7.08824 111.75396 14893 ft 353 kts 108°
2026-05-04 15:16 -7.09590 111.77771 14559 ft 357 kts 108°
2026-05-04 15:16 -7.11135 111.82524 13794 ft 354 kts 108°
2026-05-04 15:17 -7.11902 111.84872 13368 ft 352 kts 108°
2026-05-04 15:17 -7.13393 111.89487 12483 ft 347 kts 108°
2026-05-04 15:17 -7.14140 111.91810 12034 ft 344 kts 108°
2026-05-04 15:18 -7.14869 111.94083 11600 ft 342 kts 108°
2026-05-04 15:18 -7.15602 111.96369 11173 ft 339 kts 108°
2026-05-04 15:18 -7.16330 111.98644 10747 ft 337 kts 108°
2026-05-04 15:19 -7.17744 112.03071 10211 ft 319 kts 108°
2026-05-04 15:19 -7.18406 112.05143 10136 ft 305 kts 108°
2026-05-04 15:19 -7.19651 112.09042 9944 ft 281 kts 108°
2026-05-04 15:20 -7.20253 112.10924 9595 ft 280 kts 108°
2026-05-04 15:20 -7.20845 112.12779 9283 ft 277 kts 108°
2026-05-04 15:20 -7.21432 112.14616 8974 ft 275 kts 108°
2026-05-04 15:20 -7.22020 112.16456 8665 ft 273 kts 108°
2026-05-04 15:21 -7.22595 112.18256 8363 ft 270 kts 108°
2026-05-04 15:21 -7.23167 112.20049 8062 ft 268 kts 108°
2026-05-04 15:21 -7.24301 112.23605 7464 ft 264 kts 108°
2026-05-04 15:22 -7.24861 112.25359 7169 ft 262 kts 108°
2026-05-04 15:22 -7.25414 112.27091 6877 ft 260 kts 108°
2026-05-04 15:22 -7.26511 112.30531 6295 ft 257 kts 108°
2026-05-04 15:23 -7.27055 112.32239 6007 ft 255 kts 108°
2026-05-04 15:23 -7.27595 112.33935 5721 ft 253 kts 108°
2026-05-04 15:23 -7.28133 112.35621 5435 ft 252 kts 108°
2026-05-04 15:23 -7.28674 112.37320 5151 ft 250 kts 108°
2026-05-04 15:24 -7.29732 112.40642 4589 ft 248 kts 108°
2026-05-04 15:24 -7.30784 112.43950 4029 ft 245 kts 108°
2026-05-04 15:25 -7.31304 112.45583 3752 ft 244 kts 108°
2026-05-04 15:25 -7.31809 112.47169 3690 ft 231 kts 108°
2026-05-04 15:25 -7.32287 112.48669 3661 ft 220 kts 108°
2026-05-04 15:26 -7.33221 112.51599 3581 ft 212 kts 108°
2026-05-04 15:26 -7.33658 112.52971 3500 ft 201 kts 108°
2026-05-04 15:26 -7.34264 112.55733 3203 ft 202 kts 100°
2026-05-04 15:27 -7.34489 112.57121 2962 ft 199 kts 100°
2026-05-04 15:27 -7.34934 112.59849 2711 ft 198 kts 100°
2026-05-04 15:28 -7.35384 112.62635 2700 ft 198 kts 100°
2026-05-04 15:28 -7.35606 112.64006 2584 ft 199 kts 100°
2026-05-04 15:28 -7.36035 112.66679 2155 ft 182 kts 99°
2026-05-04 15:29 -7.36232 112.67903 1880 ft 173 kts 99°
2026-05-04 15:30 -7.36930 112.72192 1036 ft 144 kts 99°
2026-05-04 15:30 -7.37404 112.75177 475 ft 143 kts 98°
2026-05-04 15:31 -7.37736 112.77155 70 ft 142 kts 99°
2026-05-04 15:31 -7.37889 112.78102 9 ft 120 kts 99°
2026-05-04 15:32 -7.38037 112.79247 9 ft 16 kts 75°
2026-05-04 15:32 -7.37995 112.79367 9 ft 9 kts 62°
2026-05-04 15:33 -7.37848 112.79427 9 ft 16 kts
2026-05-04 15:34 -7.37678 112.79434 9 ft 8 kts 309°
2026-05-04 15:34 -7.37665 112.79387 9 ft 4 kts 275°
2026-05-04 15:34 -7.37662 112.79353 9 ft 2 kts 276°
2026-05-04 15:35 -7.37654 112.79334 9 ft 1 kts 358°
2026-05-04 15:35 -7.37627 112.79338 9 ft 5 kts
2026-05-04 15:35 -7.37590 112.79344 9 ft 3 kts
2026-05-04 15:36 -7.37571 112.79347 9 ft 0 kts